Location: Rounton
(54.4000°N, 1.3500°W)
Time: 07:40:51
(UTC+00:00)

SR - Pass Details

Date: 01 December 2021
Orbit: 582 x 872 km, 66.7° (Epoch: 23 January)

Event Time Altitude Azimuth Distance (km) Brightness Sun altitude
Exits shadow 05:39:06 16° 351° (N) 1,556 ? -19.8°
Maximum altitude 05:40:28 18° 14° (NNE) 1,451 ? -19.6°
Drops below altitude 10° 05:43:29 10° 59° (ENE) 1,924 ? -19.2°
Sets 05:46:21 0° 79° (E) 2,848 ? -18.8°
